Stations météo

réclame
Mon MeteoGroup
Luqa, Malte (16597): Température de l'air & dewpoint: 18.10.2018 07:00:00 - 24.10.2018 07:00:00 (CEST)Luqa, Malte (16597): Vitesse du vent: 18.10.2018 07:00:00 - 24.10.2018 07:00:00 (CEST)Luqa, Malte (16597): Direction du vent: 18.10.2018 07:00:00 - 24.10.2018 07:00:00 (CEST)Luqa, Malte (16597): reduced air pressure: 18.10.2018 07:00:00 - 24.10.2018 07:00:00 (CEST)Luqa, Malte (16597): visibility: 18.10.2018 07:00:00 - 24.10.2018 07:00:00 (CEST)
Date & Time tt [°C] td [°C] ff [km/h] ff [knt] dd ppp [hPa] vv [km]
24.10.2018 07:00:00 19,0 14,0 26 14 NNE - 10
24.10.2018 06:00:00 19,0 14,0 22 12 NNE - 10
24.10.2018 05:00:00 19,8 13,8 31 17 NNE 1011,7 10
24.10.2018 04:00:00 20,0 14,0 37 20 NNE - 10
24.10.2018 03:00:00 19,0 15,0 35 19 NNE - 10
24.10.2018 02:00:00 19,1 14,6 35 19 NNE 1012,0 10
24.10.2018 01:00:00 19,0 14,0 37 20 NNE - 10
24.10.2018 00:00:00 19,0 14,0 28 15 NNE - 10
23.10.2018 23:00:00 18,6 15,6 9 5 ENE 1012,5 10
23.10.2018 22:00:00 18,0 15,0 31 17 NE - 10
23.10.2018 21:00:00 19,0 15,0 22 12 NNE - 10
23.10.2018 20:00:00 17,8 15,8 5 3 ENE 1011,3 10
23.10.2018 19:00:00 18,0 15,0 4 2 - - 10
23.10.2018 18:00:00 19,0 15,0 15 8 NNW - 10
23.10.2018 17:00:00 19,5 13,8 24 13 NE 1009,5 10
23.10.2018 16:00:00 18,0 15,0 15 8 NE - 10
23.10.2018 15:00:00 20,0 14,0 31 17 NE - 10
23.10.2018 14:00:00 18,5 14,4 13 7 E 1009,1 10
23.10.2018 13:00:00 16,0 13,0 15 8 ESE - 10
23.10.2018 12:00:00 19,0 14,0 16 9 ENE - 10
23.10.2018 11:00:00 17,6 12,0 16 9 NE 1009,4 10
23.10.2018 10:00:00 19,0 12,0 16 9 N - 10
23.10.2018 09:00:00 17,0 12,0 13 7 NNW - 10
23.10.2018 08:00:00 16,8 12,6 13 7 NW 1008,4 10
23.10.2018 07:00:00 17,0 13,0 13 7 NNW - 10
23.10.2018 06:00:00 17,0 12,0 13 7 WNW - 10
23.10.2018 05:00:00 17,7 12,2 26 14 WNW 1009,1 10
23.10.2018 04:00:00 18,0 12,0 21 11 WNW - 10
23.10.2018 03:00:00 18,0 11,0 21 11 NW - 10
23.10.2018 02:00:00 18,3 13,0 16 9 NW 1011,4 10
23.10.2018 01:00:00 19,0 12,0 13 7 NW - 10
23.10.2018 00:00:00 18,0 12,0 13 7 NNW - 10
22.10.2018 23:00:00 18,6 13,4 16 9 NNW 1012,2 10
22.10.2018 22:00:00 19,0 14,0 18 10 NW - 10
22.10.2018 21:00:00 19,0 16,0 16 9 NNW - 10
22.10.2018 20:00:00 19,4 15,5 16 9 NNW 1011,6 10
22.10.2018 19:00:00 20,0 15,0 18 10 NW - 10
22.10.2018 18:00:00 21,0 16,0 16 9 NW - 10
22.10.2018 17:00:00 22,6 16,6 16 9 NW 1010,5 10
22.10.2018 16:00:00 23,0 17,0 21 11 NW - 10
22.10.2018 15:00:00 24,0 17,0 22 12 NW - 10
22.10.2018 14:00:00 23,3 17,5 21 11 WNW 1011,3 10
22.10.2018 13:00:00 23,0 18,0 16 9 WSW - 10
22.10.2018 12:00:00 24,0 17,0 15 8 WSW - 10
22.10.2018 11:00:00 22,1 16,7 11 6 NNW 1012,6 10
22.10.2018 10:00:00 21,0 16,0 16 9 N - 10
22.10.2018 09:00:00 22,0 18,0 2 1 - - 10
22.10.2018 08:00:00 18,8 17,4 9 5 W 1012,4 10
22.10.2018 07:00:00 19,0 17,0 8 4 WNW - 10
22.10.2018 06:00:00 18,0 17,0 13 7 WNW - 10
22.10.2018 05:00:00 18,3 17,7 9 5 NW 1012,9 10
22.10.2018 04:00:00 18,0 18,0 8 4 W - 10
22.10.2018 03:00:00 18,0 17,0 5 3 SW - 10
22.10.2018 02:00:00 17,6 17,5 21 11 WSW 1014,5 7
22.10.2018 01:00:00 17,0 17,0 11 6 ENE - 8
22.10.2018 00:00:00 21,0 18,0 15 8 WNW - 3,7
21.10.2018 23:00:00 20,7 18,1 9 5 WSW 1015,5 10
21.10.2018 22:00:00 20,0 18,0 8 4 WSW - 10
21.10.2018 21:00:00 21,0 18,0 8 4 W - 10
21.10.2018 20:00:00 21,2 17,2 5 3 WSW 1015,9 10
21.10.2018 19:00:00 21,0 17,0 5 3 WSW - 10
21.10.2018 18:00:00 22,0 17,0 5 3 W - 10
21.10.2018 17:00:00 23,2 16,7 9 5 W 1016,1 10
21.10.2018 16:00:00 23,0 17,0 11 6 WSW - 10
21.10.2018 15:00:00 24,0 17,0 8 4 SW - 10
21.10.2018 14:00:00 23,8 16,8 5 3 WSW 1017,0 10
21.10.2018 13:00:00 24,0 17,0 9 5 S - 10
21.10.2018 12:00:00 24,0 17,0 8 4 S - 10
21.10.2018 11:00:00 22,8 17,8 8 4 SE 1018,6 10
21.10.2018 10:00:00 23,0 18,0 11 6 E - 10
21.10.2018 09:00:00 22,0 19,0 8 4 E - 10
21.10.2018 08:00:00 20,5 17,7 5 3 NE 1018,2 10
21.10.2018 07:00:00 20,0 17,0 5 3 ENE - 10
21.10.2018 06:00:00 20,0 17,0 5 3 NE - 10
21.10.2018 05:00:00 20,1 17,4 9 5 ENE 1018,2 10
21.10.2018 04:00:00 21,0 18,0 8 4 ENE - 10
21.10.2018 03:00:00 21,0 17,0 11 6 ENE - 10
21.10.2018 02:00:00 21,0 17,3 9 5 NE 1019,0 10
21.10.2018 01:00:00 21,0 17,0 11 6 ENE - 10
21.10.2018 00:00:00 21,0 18,0 8 4 ENE - 10
20.10.2018 23:00:00 21,4 18,1 9 5 ENE 1019,8 10
20.10.2018 22:00:00 22,0 18,0 9 5 ENE - 10
20.10.2018 21:00:00 22,0 18,0 11 6 E - 10
20.10.2018 20:00:00 22,0 18,1 11 6 ENE 1019,1 10
20.10.2018 19:00:00 22,0 18,0 13 7 E - 10
20.10.2018 18:00:00 22,0 18,0 15 8 E - 10
20.10.2018 17:00:00 22,9 18,7 21 11 NE 1018,2 10
20.10.2018 16:00:00 23,0 19,0 16 9 ENE - 10
20.10.2018 15:00:00 23,0 19,0 21 11 E - 10
20.10.2018 14:00:00 24,0 18,8 22 12 E 1018,4 10
20.10.2018 13:00:00 24,0 18,0 18 10 ENE - 10
20.10.2018 12:00:00 24,0 19,0 22 12 E - 10
20.10.2018 11:00:00 23,2 19,2 22 12 E 1018,6 10
20.10.2018 10:00:00 23,0 19,0 22 12 E - 10
20.10.2018 09:00:00 23,0 19,0 18 10 ENE - 10
20.10.2018 08:00:00 22,0 18,4 15 8 ENE 1016,7 10
20.10.2018 07:00:00 22,0 19,0 18 10 ENE - 10
20.10.2018 06:00:00 22,0 19,0 18 10 ENE - 10
20.10.2018 05:00:00 21,9 19,4 16 9 ENE 1015,7 10
20.10.2018 04:00:00 22,0 20,0 24 13 ENE - 9
20.10.2018 03:00:00 22,0 20,0 21 11 ENE - 8
20.10.2018 02:00:00 21,9 20,4 22 12 ENE 1015,6 7
20.10.2018 01:00:00 22,0 20,0 18 10 NE - 10
20.10.2018 00:00:00 22,0 19,0 13 7 ENE - 10
19.10.2018 23:00:00 21,2 18,5 11 6 NE 1015,6 10
19.10.2018 22:00:00 21,0 18,0 8 4 ENE - 10
19.10.2018 21:00:00 21,0 18,0 9 5 NE - 10
19.10.2018 20:00:00 21,3 17,1 9 5 ENE 1014,5 10
19.10.2018 19:00:00 21,0 18,0 11 6 ENE - 10
19.10.2018 18:00:00 22,0 17,0 15 8 ENE - 10
19.10.2018 17:00:00 22,5 17,3 16 9 ENE 1013,0 10
19.10.2018 16:00:00 23,0 18,0 11 6 ENE - 10
19.10.2018 15:00:00 23,0 18,0 16 9 ENE - 10
19.10.2018 14:00:00 23,1 17,5 16 9 ENE 1012,2 10
19.10.2018 13:00:00 23,0 18,0 15 8 NE - 10
19.10.2018 12:00:00 23,0 19,0 13 7 ENE - 10
19.10.2018 11:00:00 23,4 18,6 13 7 ENE 1012,2 10
19.10.2018 10:00:00 23,0 19,0 13 7 E - 10
19.10.2018 09:00:00 21,0 18,0 18 10 ESE - 10
19.10.2018 08:00:00 20,2 18,8 8 4 E 1010,5 10
19.10.2018 07:00:00 20,0 19,0 8 4 ENE - 10
19.10.2018 06:00:00 20,0 18,0 13 7 ESE - 10
19.10.2018 05:00:00 19,5 17,8 8 4 E 1008,9 10
19.10.2018 04:00:00 19,0 17,0 13 7 E - 10
19.10.2018 03:00:00 19,0 17,0 2 1 - - 10
19.10.2018 02:00:00 20,2 16,4 13 7 ENE 1008,7 10
19.10.2018 01:00:00 21,0 15,0 11 6 W - 10
19.10.2018 00:00:00 21,0 18,0 24 13 W - 10
18.10.2018 23:00:00 22,9 20,4 24 13 S 1008,3 9
18.10.2018 22:00:00 23,0 22,0 16 9 SSE - 8
18.10.2018 21:00:00 23,0 22,0 22 12 SE - 8
18.10.2018 20:00:00 23,2 21,9 26 14 ESE 1007,7 9
18.10.2018 19:00:00 23,0 22,0 24 13 ESE - 7
18.10.2018 18:00:00 23,0 22,0 24 13 ESE - 7
18.10.2018 17:00:00 23,5 21,4 24 13 ESE 1007,0 8
18.10.2018 16:00:00 23,0 21,0 28 15 ESE - 8
18.10.2018 15:00:00 24,0 21,0 34 18 ESE - 10
18.10.2018 14:00:00 23,9 21,3 34 18 ESE 1006,3 10
18.10.2018 13:00:00 24,0 21,0 37 20 ESE - 10
18.10.2018 12:00:00 24,0 21,0 39 21 ESE - 10
18.10.2018 11:00:00 23,7 20,6 35 19 ESE 1008,5 10
18.10.2018 10:00:00 23,0 20,0 35 19 ESE - 10
18.10.2018 09:00:00 23,0 20,0 31 17 ESE - 10
18.10.2018 08:00:00 22,6 20,1 28 15 ESE 1008,2 10
18.10.2018 07:00:00 23,0 20,0 39 21 ESE - 10

tt = Température de l'air
td = dewpoint
ff = Vitesse du vent
dd = Direction du vent
ppp = reduced air pressure
vv = visibility

stations d'obs. à proximité